FENGYUN 1C DEB

Satellite information

Favourite Embed

Satellite Type and Status

DEBRISIN ORBIT

Key statistics

Satellite FENGYUN 1C DEB at a glance.

Uptime

9714

Days in orbit

Revolutions

≈ 14.1

Per day

Orbit

SSO

Sun Synchronous Orbit

Inclination

99.0

Latest

Satellite identification and parameters

Extended collection of information and parameters for FENGYUN 1C DEB.

Object identification

Identified? True

Debris? True

Object name: FENGYUN 1C DEB

International designator: 1999-025UE

Object number (NORAD): 30173

Object ID (CCSDS): 30173

Country: PEOPLES REPUBLIC OF CHINA (PRC)

Current information (Y/N): Y

RCS size: SMALL

Orbital parameters

Period: 102.028 minutes

Inclination: 98.9768 deg

SMA: 7232.79 km

Apoapsis: 912.71 km

Periapsis: 796.6 km

RAAN: 56.9292 deg

Eccentricy: 0.00802664

Argument of periapsis: 290.2617 deg

Mean anomaly: 97.4292 deg

Mean motion: 14.11380057 rev/day

Mean motion (dot): 0.00004102 rev/day2

B* drag term: 0.0022231388 1/REarth

Two-line elements (TLE)

Creation date: Dec. 12, 2025, 10:14 a.m.

Reference frame: TEME

Reference center: EARTH

Epoch: Dec. 12, 2025, 4:03 a.m. UTC

TLE line 0: 0 FENGYUN 1C DEB

TLE line 1: 1 30173U 99025UE 25346.16891380 .00004102 00000-0 22231-2 0 9994

TLE line 2: 2 30173 98.9768 56.9292 0080266 290.2617 97.4292 14.11380057965413

Live tracking on map

Real-time ground track for satellite FENGYUN 1C DEB.

In-orbit conjunctions

A list of the most updated potential collisions computed for object FENGYUN 1C DEB.

Target Orbit TCA Probability of collision Miss distance Type
CZ-6A DEB LEO 2025-02-19 19:09:45 0.0001328536 245.0 (m) DEBRIS
FENGYUN 1C DEB SSO 2024-11-15 11:19:01 0.0005930294 209.0 (m) DEBRIS

Associated space launch

Chinese polar orbiting meteorological satellite

FENGYUN 1C DEB was lifted into orbit during the mission ‘Long March 4B | Feng Yun 1C’, on board a Long March 4B space rocket.

The launch took place on May 10, 1999, 1:33 a.m. from Launch Complex 7.

For more information about the launch, click the button.

Launch to space Long March 4B | Feng Yun 1C
Long March 4B | Feng Yun 1C

Agency: N/A

Status: Launch Successful

Launch date: May 10, 1999, 1:33 a.m. UTC

Rocket: Long March 4B

Launch pad: Launch Complex 7

Location: Taiyuan Satellite Launch Center, People's Republic of China

...

Latest news about this satellite

There are no fresh news available about this satellite. Check back as we update our databases every day.


Newsletter sign-up

Weekly statistics, charts and insights to help you stay on top of the space industry.